This demonstration page uses our WeatherBlox Daily Observations layout. Learn more.

Left ArrowRight Arrow

Hourly Observations for May 12, 2016

Temp ( °F °C ) Dew Point ( °F °C ) Humidity (%) Winds ( mph kmh ) Pressure ( in mb ) Visibility ( mi km ) Precip ( " mm )
12:51 am 00:51 Clear 66 18.9 23 -5 19 19 NW 7 11 29.89 1012 10 16 0.00 0.00
1:51 am 01:51 Clear 65 18.3 24 -4.4 21 21 N 3 6 29.89 1012 10 16 0.00 0.00
2:51 am 02:51 Clear 65 18.3 23 -5 20 20 NNW 5 7 29.89 1012 10 16 0.00 0.00
3:51 am 03:51 Clear 62 16.7 25 -3.9 24 24 S 8 13 29.91 1013 10 16 0.00 0.00
4:51 am 04:51 Clear 58 14.4 23 -5 26 26 ESE 5 7 29.94 1014 10 16 0.00 0.00
5:51 am 05:51 Sunny 58 14.4 22 -5.6 25 25 ESE 5 7 29.97 1015 10 16 0.00 0.00
6:51 am 06:51 Sunny 64 17.8 24 -4.4 22 22 S 5 7 29.99 1016 10 16 0.00 0.00
7:51 am 07:51 Sunny 70 21.1 26 -3.3 19 19 SSE 13 20 30.00 1016 10 16 0.00 0.00
8:51 am 08:51 Sunny 77 25 26 -3.3 15 15 ESE 10 17 30.00 1016 10 16 0.00 0.00
9:51 am 09:51 Sunny 83 28.3 25 -3.9 12 12 ESE 8 13 29.99 1016 10 16 0.00 0.00
10:51 am 10:51 Sunny 85 29.4 26 -3.3 12 12 S 7 11 29.98 1015 10 16 0.00 0.00
11:51 am 11:51 Sunny 88 31.1 24 -4.4 10 10 ESE 6 9 29.95 1014 10 16 0.00 0.00
12:51 pm 12:51 Sunny 91 32.8 23 -5 8 8 VRB 5 7 29.93 1013 10 16 0.00 0.00
1:51 pm 13:51 Sunny 92 33.3 21 -6.1 7 7 SW 7 11 29.91 1013 10 16 0.00 0.00
2:51 pm 14:51 Sunny 95 35 18 -7.8 6 6 N 7 11 29.88 1012 10 16 0.00 0.00
3:51 pm 15:51 Sunny 96 35.6 18 -7.8 6 6 E 8 13 29.85 1011 10 16 0.00 0.00
4:51 pm 16:51 Sunny 95 35 19 -7.2 6 6 VRB 3 6 29.85 1011 10 16 0.00 0.00
5:51 pm 17:51 Sunny 95 35 17 -8.3 6 6 N 8 13 29.84 1011 10 16 0.00 0.00
6:51 pm 18:51 Sunny 91 32.8 17 -8.3 6 6 NW 6 9 29.84 1011 10 16 0.00 0.00
7:51 pm 19:51 Clear 81 27.2 17 -8.3 9 9 N 5 7 29.86 1011 10 16 0.00 0.00
8:51 pm 20:51 Clear 79 26.1 19 -7.2 10 10 Calm 29.87 1012 10 16 0.00 0.00
9:51 pm 21:51 Clear 74 23.3 23 -5 15 15 NW 6 9 29.88 1012 10 16 0.00 0.00
10:51 pm 22:51 Clear 76 24.4 21 -6.1 13 13 NNW 7 11 29.88 1012 10 16 0.00 0.00
11:51 pm 23:51 Clear 71 21.7 19 -7.2 14 14 N 5 7 29.89 1012 10 16 0.00 0.00

Powered by AerisWeather